{"data":{"norad_id":65257,"intl_designator":"2025-179Y","name":"STARLINK-34966","alt_names":[],"object_type":"PAYLOAD","status":"ACTIVE","operator":null,"country":"US","launch_date":"2025-08-18","launch_site_code":"AFWTR","launch_vehicle":null,"mission":null,"orbit_class":"UNKNOWN","rcs_meters":null,"size_class":null,"mass_kg":null,"dimensions":null,"purposes":["comms"],"wikipedia_slug":null,"has_3d_model":false,"image_url":null,"decayed_at":null,"tle_current":{"epoch":"2026-05-25T03:17:11.615136Z","epoch_age_seconds":60309,"freshness":"FRESH","line1":"1 65257U 25179Y   26145.13693999  .00003731  00000+0  26251-3 0  9998","line2":"2 65257  97.4494 187.9874 0000860 134.6318 225.4980 15.05648948 43432","mean_motion":15.05648948,"eccentricity":8.6e-5,"inclination_deg":97.4494,"raan_deg":187.9874,"arg_perigee_deg":134.6318,"mean_anomaly_deg":225.498,"bstar":0.00026251,"rev_number":4343,"period_min":95.639823739312,"perigee_km":548.91860292793,"apogee_km":550.11015896546,"semimajor_km":6927.6513809467,"source":"CELESTRAK","updated_at":"2026-05-25T13:38:20.728705Z"}}}